TimeEST,TemperatureF,Dew PointF,Humidity,Sea Level PressureIn,VisibilityMPH,Wind Direction,Wind SpeedMPH,Gust SpeedMPH,PrecipitationIn,Events,Conditions,WindDirDegrees,DateUTC
12:32 AM,26.6,23.0,86,30.20,6.0,South,4.6,-,N/A,,Scattered Clouds,190,2013-01-26 05:32:00
12:41 AM,26.6,23.0,86,30.20,6.0,SSW,3.5,-,N/A,,Mostly Cloudy,200,2013-01-26 05:41:00
12:56 AM,27.0,24.1,89,30.22,6.0,SSW,3.5,-,N/A,,Overcast,210,2013-01-26 05:56:00
1:31 AM,26.6,24.8,93,30.20,5.0,SSW,4.6,-,N/A,,Scattered Clouds,200,2013-01-26 06:31:00
1:56 AM,27.0,25.0,92,30.22,5.0,SSW,6.9,-,N/A,,Scattered Clouds,210,2013-01-26 06:56:00
2:56 AM,25.0,23.0,92,30.23,5.0,Calm,Calm,-,N/A,,Mostly Cloudy,0,2013-01-26 07:56:00
3:56 AM,28.0,24.1,85,30.22,6.0,WSW,5.8,-,N/A,,Scattered Clouds,250,2013-01-26 08:56:00
4:56 AM,28.0,24.1,85,30.23,7.0,WSW,6.9,-,N/A,,Mostly Cloudy,250,2013-01-26 09:56:00
5:56 AM,26.1,23.0,88,30.25,5.0,West,3.5,-,N/A,,Mostly Cloudy,280,2013-01-26 10:56:00
6:56 AM,24.1,21.9,91,30.27,5.0,Calm,Calm,-,N/A,,Mostly Cloudy,0,2013-01-26 11:56:00
7:56 AM,24.1,21.9,91,30.30,3.0,Calm,Calm,-,N/A,,Scattered Clouds,0,2013-01-26 12:56:00
8:51 AM,24.8,23.0,93,30.31,2.5,Calm,Calm,-,N/A,,Mostly Cloudy,0,2013-01-26 13:51:00
8:56 AM,25.0,23.0,92,30.33,2.5,Calm,Calm,-,N/A,,Mostly Cloudy,0,2013-01-26 13:56:00
9:19 AM,28.4,24.8,86,30.32,3.0,Calm,Calm,-,N/A,,Mostly Cloudy,0,2013-01-26 14:19:00
9:56 AM,30.0,23.0,75,30.35,7.0,NNE,8.1,-,N/A,,Mostly Cloudy,20,2013-01-26 14:56:00
10:56 AM,30.9,21.0,67,30.36,8.0,North,6.9,-,N/A,,Mostly Cloudy,10,2013-01-26 15:56:00
11:56 AM,32.0,19.9,61,30.38,8.0,North,6.9,-,N/A,,Scattered Clouds,10,2013-01-26 16:56:00
12:56 PM,34.0,19.9,56,30.36,9.0,NNW,4.6,-,N/A,,Scattered Clouds,340,2013-01-26 17:56:00
1:56 PM,37.0,19.0,48,30.35,9.0,NNW,5.8,-,N/A,,Scattered Clouds,330,2013-01-26 18:56:00
2:56 PM,37.9,18.0,45,30.35,9.0,NW,5.8,-,N/A,,Partly Cloudy,310,2013-01-26 19:56:00
3:56 PM,39.0,18.0,43,30.35,9.0,Calm,Calm,-,N/A,,Partly Cloudy,0,2013-01-26 20:56:00
4:56 PM,37.9,18.0,45,30.35,9.0,Calm,Calm,-,N/A,,Partly Cloudy,0,2013-01-26 21:56:00
5:56 PM,35.1,17.1,48,30.37,10.0,NNE,4.6,-,N/A,,Partly Cloudy,30,2013-01-26 22:56:00
6:56 PM,35.1,17.1,48,30.38,10.0,Calm,Calm,-,N/A,,Partly Cloudy,0,2013-01-26 23:56:00
7:56 PM,33.1,17.1,52,30.40,10.0,Calm,Calm,-,N/A,,Scattered Clouds,0,2013-01-27 00:56:00
8:56 PM,30.9,17.1,57,30.42,9.0,NNE,5.8,-,N/A,,Scattered Clouds,20,2013-01-27 01:56:00
9:56 PM,30.0,17.1,59,30.42,10.0,NE,5.8,-,N/A,,Scattered Clouds,50,2013-01-27 02:56:00
10:56 PM,30.0,18.0,61,30.42,10.0,ENE,6.9,-,N/A,,Partly Cloudy,70,2013-01-27 03:56:00
11:56 PM,28.9,18.0,64,30.43,10.0,East,6.9,-,N/A,,Scattered Clouds,80,2013-01-27 04:56:00